User: anonymous   Login
Location: Moscow
(55.7500°N, 37.5830°E)
Time: 08:01:15
(UTC+03:00)
Language:

Kosmos-337 - Orbit

View from above orbital plane
View from above orbital plane
View from above satellite
View from above satellite

Ground track
Ground track

The orbit data is extracted from the following two-line orbital elements,

1  4384U 70036B   23265.52911990  .00000000  00000-0  11982-3 0  9993
2  4384  74.0255 277.0837 0054102 333.3334 144.8121 12.39230953416371
Epoch (UTC): 22 September 2023 12:41:55
Eccentricity: 0.0054102
inclination: 74.0255°
perigee height: 1467 km
apogee height: 1552 km
right ascension of ascending node: 277.0837°
argument of perigee: 333.3334°
revolutions per day: 12.39230953
mean anomaly at epoch: 144.8121°
orbit number at epoch: 41637

The dashed part of the orbit path shows where the satellite is in the earth's shadow,  

DLR